Regional Weather Roundup
Issued by NWS Little Rock, AR

Home | Current Version | Previous Version | Text Only | Print | Product List | Glossary Off
Versions: 1 2 3 4 5 6 7 8 9 10 11 12 13 14 15 16 17 18 19 20 21 22 23 24 25 26 27 28 29 30 31 32 33 34 35 36 37 38 39 40 41 42 43 44 45 46 47 48 49 50

000
ASUS44 KLZK 281805
RWRLZK

WEATHER ROUNDUP FOR ARKANSAS
NATIONAL WEATHER SERVICE LITTLE ROCK AR
100 PM CDT TUE JUL 28 2015

NOTE: "FAIR" INDICATES FEW OR NO CLOUDS BELOW 12,000 FEET WITH NO
SIGNIFICANT WEATHER AND/OR OBSTRUCTIONS TO VISIBILITY.

ARZ001-003-010-029-281900-
NORTHWEST ARKANSAS

CITY           SKY/WX    TMP DP  RH WIND       PRES   REMARKS
FAYETTEVILLE   MOSUNNY   90  74  59 SW8       30.02F HX  99
6HR MIN TEMP:  73; 6HR MAX TEMP:  90;

FORT SMITH     MOSUNNY   95  68  41 VRB5      29.96F HX  99
6HR MIN TEMP:  78; 6HR MAX TEMP:  96;

HARRISON       PTSUNNY   91  73  55 S6        30.04S HX  99
6HR MIN TEMP:  75; 6HR MAX TEMP:  92;

BENTONVILLE    SUNNY     91  72  52 SW8       30.04S HX  98
6HR MIN TEMP:  75; 6HR MAX TEMP:  91;

ROGERS           N/A     92  73  53 MISG        N/A  HX 100
6HR MIN TEMP:  76; 6HR MAX TEMP:  92;

SILOAM SPGS    SUNNY     93  70  46 SW9       30.01S HX  99
6HR MIN TEMP:  75; 6HR MAX TEMP:  93;

HIGHFILL       SUNNY     90  74  59 S9        30.02S HX  99
6HR MIN TEMP:  76; 6HR MAX TEMP:  91;

SPRINGDALE     MOSUNNY   90  73  58 S7G13     30.05S HX  98
$$

ARZ004-005-016-281900-
NORTH CENTRAL ARKANSAS

CITY           SKY/WX    TMP DP  RH WIND       PRES   REMARKS
BATESVILLE     MOSUNNY   93  75  55 SW8       30.00S HX 104
6HR MIN TEMP:  77; 6HR MAX TEMP:  93;

FLIPPIN        MOSUNNY   93  72  49 S5        29.99S HX 100
6HR MIN TEMP:  73; 6HR MAX TEMP:  93;

MTN HOME       SUNNY     91  75  59 W5        30.01S HX 101
6HR MIN TEMP:  75; 6HR MAX TEMP:  91;

$$

ARZ040-041-281900-
WEST CENTRAL ARKANSAS

CITY           SKY/WX    TMP DP  RH WIND       PRES   REMARKS
MENA           MOSUNNY   97  70  41 CALM      30.02F HX 103
MOUNT IDA      MOSUNNY   95  71  45 VRB6      29.99F HX 102
6HR MIN TEMP:  73; 6HR MAX TEMP:  96;

$$

ARZ009-017-025-026-028-281900-
NORTHEAST ARKANSAS

CITY           SKY/WX    TMP DP  RH WIND       PRES   REMARKS
JONESBORO      PTSUNNY   92  78  63 W9        29.99S HX 107
6HR MIN TEMP:  78; 6HR MAX TEMP:  93;

NEWPORT        MOSUNNY   97  77  52 S8        30.00F HX 112
6HR MIN TEMP:  79; 6HR MAX TEMP:  98;

WALNUT RIDGE   SUNNY     93  75  55 SW12      29.98S HX 104
6HR MIN TEMP:  79; 6HR MAX TEMP:  93;

BLYTHEVILLE    MOSUNNY   93  78  61 SW6       29.99S HX 108
6HR MIN TEMP:  80; 6HR MAX TEMP:  94;

$$

ARZ022-023-033-042-044-281900-
CENTRAL ARKANSAS

CITY           SKY/WX    TMP DP  RH WIND       PRES   REMARKS
LITTLE ROCK    MOSUNNY   97  75  49 S9        29.99F HX 109
6HR MIN TEMP:  81; 6HR MAX TEMP:  97;

N LITTLE ROCK  MOSUNNY   96  74  49 SW6       29.99F HX 107
6HR MIN TEMP:  80; 6HR MAX TEMP:  97;

SEARCY         SUNNY     96  77  54 VRB7      30.00F HX 111
6HR MIN TEMP:  77; 6HR MAX TEMP:  96;

HOT SPRINGS    SUNNY     96  71  44 VRB7      30.00F HX 103
6HR MIN TEMP:  77; 6HR MAX TEMP:  97;

RUSSELLVILLE   SUNNY     94  74  52 VRB5      29.98F HX 104
6HR MIN TEMP:  75; 6HR MAX TEMP:  94;

CLINTON        FAIR      93  77  59 CALM      30.01F HX 107
$$

ARZ036-281900-
EAST ARKANSAS

CITY           SKY/WX    TMP DP  RH WIND       PRES   REMARKS
WEST MEMPHIS   SUNNY     94  78  60 VRB7      29.99S HX 110
6HR MIN TEMP:  78; 6HR MAX TEMP:  94;

$$

ARZ050-053-066-070-073-281900-
SOUTHWEST ARKANSAS

CITY           SKY/WX    TMP DP  RH WIND       PRES   REMARKS
ARKADELPHIA    FAIR     100  75  44 S9        29.99F HX 112
6HR MIN TEMP:  76; 6HR MAX TEMP: 100;

CAMDEN         SUNNY     97  72  44 SW6       29.99F HX 105
TEXARKANA      SUNNY     95  73  48 S9        30.00S HX 104
6HR MIN TEMP:  79; 6HR MAX TEMP:  95;

EL DORADO      PTSUNNY   94  73  50 SW6       30.01S HX 103
6HR MIN TEMP:  75; 6HR MAX TEMP:  95;

DE QUEEN       MOSUNNY   94  75  54 VRB5      29.97S HX 105
6HR MIN TEMP:  74; 6HR MAX TEMP:  94;

$$

ARZ056-057-069-281900-
SOUTHEAST ARKANSAS

CITY           SKY/WX    TMP DP  RH WIND       PRES   REMARKS
PINE BLUFF     MOSUNNY   95  74  50 VRB7      30.00F HX 105
6HR MIN TEMP:  77; 6HR MAX TEMP:  96; 6HR PCP: TRACE;

STUTTGART      MOSUNNY   97  75  49 SW6       30.00S HX 109
6HR MIN TEMP:  79; 6HR MAX TEMP:  97;

MONTICELLO     PTSUNNY   94  73  50 CALM      30.00F HX 103
6HR MIN TEMP:  77; 6HR MAX TEMP:  96;


$$




USA.gov is the U.S. government's official web portal to all federal, state and local government web resources and services.